Regional Weather Roundup
Issued by NWS Sioux Falls, SD

Home | Current Version | Previous Version | Text Only | Print | Product List | Glossary On
Versions: 1 2 3 4 5 6 7 8 9 10 11 12 13 14 15 16 17 18 19 20 21 22 23 24 25 26 27 28 29 30 31 32 33 34 35 36 37 38 39 40 41 42 43 44 45 46 47 48 49 50
000
ASUS43 KFSD 152210
RWRFSD

WEATHER ROUNDUP FOR SE SOUTH DAKOTA/SW MINNESOTA/NW IOWA
NATIONAL WEATHER SERVICE SIOUX FALLS SD
500 PM CDT MON JUL 15 2019

NOTE: "FAIR" INDICATES FEW OR NO CLOUDS BELOW 12,000 FEET WITH NO
SIGNIFICANT WEATHER AND OR OBSTRUCTIONS TO VISIBILITY.


SDZ038>040-050-052>070-152300-
SOUTHEAST SOUTH DAKOTA

CITY           SKY/WX    TMP DP  RH WIND       PRES   REMARKS
BROOKINGS      SUNNY     88  75  65 CALM      29.85F HX  97
CHAMBERLAIN    MOSUNNY   95  67  40 N12       29.86S HX  98
HURON          MOSUNNY   90  68  48 N14       29.83R
MADISON        FAIR      86  77  74 N6        29.86F HX  97
MITCHELL       FAIR      90  74  59 NE8       29.84S HX  99
SIOUX FALLS    MOSUNNY   92  72  51 SW5       29.83F HX  99
WINNER         FAIR      94  61  33 N9        29.89F
YANKTON        SUNNY     93  73  52 SW10      29.83F HX 102
$$

MNZ071-072-080-081-089-090-097-098-152300-
SOUTHWEST MINNESOTA

CITY           SKY/WX    TMP DP  RH WIND       PRES   REMARKS
FAIRMONT       MOSUNNY   88  75  65 S18G30    29.85F HX  97
JACKSON        MOSUNNY   88  72  58 SW17      29.87F
LUVERNE        MOSUNNY   88  72  58 SW10      29.85F
MARSHALL       PTSUNNY   91  76  61 W15       29.80F HX 103
MONTEVIDEO     SUNNY     91  70  49 NW7       29.78  HX  97
PIPESTONE      MOSUNNY   88  73  62 W7        29.86F HX  96
REDWOOD FALLS  MOSUNNY   91  77  63 SW14      29.77F HX 104
TRACY          MOSUNNY  N/A N/A N/A SW14G20   29.81F
WINDOM         SUNNY     90  73  58 S18G25    29.84F HX  98
WORTHINGTON    MOSUNNY   89  74  60 SW17G23   29.86F HX  98
$$

IAZ001>003-012>014-020>022-031-032-NEZ013-014-SDZ071-152300-
NORTHWEST IOWA

CITY           SKY/WX    TMP DP  RH WIND       PRES   REMARKS
CHEROKEE       PTSUNNY   87  76  71 S10G21    29.88S HX  97
DENISON        SUNNY     86  73  66 S12G20    29.90F
ESTHERVILLE    MOSUNNY   87  73  62 S20G29    29.86F
LE MARS        MOSUNNY   91  77  62 S14       29.84F HX 105
MAURICE        FAIR      90  77  66 SW13G21   29.85F HX 102
SHELDON        MOSUNNY   88  82  84 S15       29.84F HX 108
SIOUX CITY     MOSUNNY   90  77  65 S13       29.85S HX 103
SPENCER        MOSUNNY   90  74  59 S18G26    29.87F HX  99
STORM LAKE     MOSUNNY   84  73  70 S13G21    29.87S
$$

ABBREVIATIONS USED IN REMARKS
   TC - TEMPERATURE IN CELSIUS
  WCI - WIND CHILL INDEX
   HX - HEAT INDEX
  VSB - VISIBILITY




USA.gov is the U.S. government's official web portal to all federal, state and local government web resources and services.